Spot 4 Rocket - Orbit

View from above orbital plane
View from above orbital plane
View from above satellite
View from above satellite

Ground track
Ground track

The orbit data is extracted from the following two-line orbital elements,

1 25261U 98017B   13139.98777784  .00000331  00000-0  13754-3 0  2998
2 25261 098.3544 101.7629 0003749 166.8146 234.8671 14.32551658791718
Epoch (UTC): 19 May 2013 23:42:24
Eccentricity: 0.0003749
inclination: 98.3544°
perigee height: 780 km
apogee height: 786 km
right ascension of ascending node: 101.7629°
argument of perigee: 166.8146°
revolutions per day: 14.32551658
mean anomaly at epoch: 234.8671°
orbit number at epoch: 79171

The dashed part of the orbit path shows where the satellite is in the earth's shadow,  

Developed and maintained by Chris Peat, Heavens-Above GmbH. Please read the updated FAQ before sending e-mail. Imprint. DLR